{"data":{"norad_id":49090,"epoch":"2026-05-25T03:22:48.354816Z","epoch_age_seconds":73079,"freshness":"FRESH","line1":"1 49090U 21075R   26145.14083744 -.00000287  00000+0 -83407-3 0  9999","line2":"2 49090  87.8958 355.2379 0002012  78.3887 281.7467 13.12442820231546","mean_motion":13.1244282,"eccentricity":0.0002012,"inclination_deg":87.8958,"raan_deg":355.2379,"arg_perigee_deg":78.3887,"mean_anomaly_deg":281.7467,"bstar":-0.00083407,"rev_number":23154,"period_min":109.71906570375,"perigee_km":1212.1965027607,"apogee_km":1215.2514676211,"semimajor_km":7591.8609851909,"source":"CELESTRAK","updated_at":"2026-05-25T13:38:22.483780Z"}}